Temp
73 77 80 80 80 79 79 79 79 78 78 79 79 79 79 79 79 79 79 79 79 80 80 80 80 79 79 79 79 79 79 79 78 79 79 79 78 78 77 77 77 76 78
76 77 80 80 80 79 79 79 78 78 78 79 78 79 79 79 79 79 79 79 79 79 80 80 80 79 79 79 79 79 79 79 79 79 79 79 78 78 77 77 77 75 77
76 77 79 79 80 79 79 78 78 78 78 78 78 78 79 79 79 79 79 79 80 80 80 80 80 80 79 79 79 78 78 78 78 78 77 72 73 78 77 77 77 77 76
77 76 77 79 79 79 79 78 78 78 78 78 78 78 78 79 79 79 79 79 79 79 79 79 79 79 79 79 79 78 78 78 78 78 73 74 76 78 77 77 77 76 75
77 75 77 79 79 79 79 78 78 78 78 78 78 79 79 79 78 78 79 79 79 80 80 79 79 79 79 79 78 78 78 78 79 78 71 70 70 77 77 77 76 76 75
75 74 78 79 79 79 79 78 78 78 78 78 79 78 78 78 78 78 79 79 79 79 79 79 78 78 78 78 78 78 78 79 79 71 71 72 70 76 77 77 77 76 75
74 74 77 79 79 79 79 78 78 78 78 78 78 78 78 78 78 78 78 79 79 79 79 79 78 78 78 78 78 78 78 79 74 70 71 71 70 76 77 77 77 76 75
76 74 75 79 78 78 79 78 78 78 78 78 78 78 78 78 78 78 78 78 79 79 79 79 78 78 77 77 77 77 77 78 75 72 72 70 73 76 78 77 76 76 75
77 74 74 75 77 79 78 78 78 77 77 77 77 77 77 77 77 78 78 78 78 78 78 78 78 77 77 77 77 77 78 79 71 72 76 70 75 77 78 77 76 76 75
76 75 73 73 73 73 74 78 78 77 77 77 77 77 77 77 77 77 77 77 78 78 78 78 78 77 77 77 77 77 78 79 71 70 71 71 76 77 78 77 77 76 76
75 75 76 74 72 72 73 75 77 78 78 77 77 77 75 72 73 74 76 77 78 78 78 78 77 77 77 77 77 77 78 73 71 70 70 75 77 78 78 78 77 77 76
71 74 75 74 73 72 77 73 72 73 73 73 73 72 72 71 71 75 75 77 78 78 78 77 77 77 77 73 72 75 72 72 72 72 70 76 77 79 79 78 77 77 76
71 73 75 73 72 72 74 71 72 71 71 72 71 71 70 71 70 71 71 71 72 75 74 74 73 72 72 72 75 73 72 72 71 72 74 77 77 79 79 79 78 77 76
71 72 73 72 71 71 71 71 71 71 70 71 70 70 69 68 68 68 69 70 70 71 71 71 71 71 71 72 72 72 71 72 71 71 71 77 77 78 79 79 79 78 77
72 73 73 73 71 71 69 70 70 70 70 70 69 69 69 68 67 67 69 69 70 70 70 70 70 71 70 71 72 72 72 71 71 70 68 75 77 77 78 79 79 78 77
76 75 75 74 73 73 71 69 71 71 70 69 69 70 70 69 68 68 69 70 69 70 70 70 70 70 70 70 71 73 72 71 71 71 69 69 75 76 77 79 79 79 79
77 77 76 75 74 74 73 70 70 70 71 69 70 71 71 70 70 70 69 69 70 70 70 70 69 69 69 71 69 70 70 71 70 71 70 70 70 74 76 77 77 78 75
73 75 75 81 75 72 73 71 69 71 71 71 71 71 71 72 70 71 70 70 69 70 69 67 67 66 67 66 66 66 66 68 68 68 68 68 68 69 73 74 75 76 75
75 73 74 75 73 71 71 72 71 72 71 70 70 71 72 71 73 70 69 69 70 68 67 68 66 66 64 64 66 66 65 66 66 68 67 68 67 67 67 70 72 72 73
72 74 75 75 73 71 72 73 72 70 68 69 68 69 71 72 72 70 69 68 67 66 65 66 65 64 63 62 66 65 64 64 64 63 64 67 66 67 66 66 66 67 72
70 71 72 72 72 73 71 70 69 67 67 66 66 68 68 68 69 68 68 67 66 65 64 65 63 62 62 61 61 60 61 62 62 62 64 63 63 66 66 66 65 67 68
68 69 70 70 70 71 70 70 68 68 66 65 65 66 67 68 68 67 65 65 66 65 65 64 63 61 61 61 59 57 55 59 60 62 62 63 62 63 66 67 67 67 67
67 67 67 68 69 70 70 69 68 68 66 64 64 64 65 67 66 66 65 64 64 62 61 61 62 62 61 61 62 62 58 56 59 61 62 61 62 62 63 65 66 67 67
66 66 66 67 67 69 70 69 68 66 64 64 63 64 64 66 65 64 63 62 60 60 59 60 60 59 61 58 61 62 60 61 58 58 61 61 63 64 63 64 66 66 66
65 65 64 64 65 66 66 67 66 64 64 63 61 61 61 61 63 63 62 59 57 57 56 56 57 56 57 56 57 58 59 59 61 59 57 59 62 63 64 65 65 65 66
62 62 63 63 62 63 65 65 66 65 63 62 64 63 62 58 60 59 59 57 56 55 55 54 55 56 55 54 53 55 55 56 58 59 57 58 58 61 63 63 64 64 64
MSLP
1013.03 1012.91 1013.19 1013.38 1013.25 1013.45 1013.77 1014.09 1014.30 1014.45 1014.53 1014.64 1014.80 1014.88 1014.90 1014.94 1015.10 1015.24 1015.33 1015.47 1015.55 1015.59 1015.72 1015.85 1015.93 1016.03 1016.13 1016.23 1016.32 1016.28 1016.47 1016.55 1016.56 1016.56 1016.48 1016.53 1016.51 1016.59 1016.67 1016.76 1016.87 1016.90 1016.79
1012.14 1012.65 1013.05 1013.14 1013.28 1013.57 1013.90 1014.17 1014.37 1014.54 1014.65 1014.72 1014.92 1015.14 1015.25 1015.31 1015.43 1015.60 1015.65 1015.67 1015.78 1015.91 1016.05 1016.20 1016.37 1016.48 1016.59 1016.60 1016.66 1016.63 1016.66 1016.78 1016.81 1016.78 1016.81 1016.77 1016.78 1016.85 1016.91 1016.96 1017.07 1017.13 1017.11
1012.19 1012.58 1013.08 1013.22 1013.46 1013.77 1014.05 1014.31 1014.50 1014.67 1014.73 1014.90 1015.06 1015.20 1015.40 1015.63 1015.80 1015.86 1015.94 1015.93 1016.03 1016.22 1016.34 1016.45 1016.61 1016.75 1016.83 1016.86 1016.89 1016.87 1016.88 1016.91 1016.91 1017.07 1017.19 1017.27 1017.13 1016.98 1016.99 1017.09 1017.18 1017.29 1017.46
1012.46 1013.00 1013.29 1013.45 1013.69 1014.06 1014.35 1014.57 1014.75 1014.87 1014.99 1015.10 1015.24 1015.42 1015.63 1015.81 1016.00 1016.14 1016.23 1016.28 1016.33 1016.47 1016.62 1016.67 1016.75 1016.91 1017.02 1017.11 1017.10 1017.10 1017.14 1017.12 1017.14 1017.22 1017.38 1017.41 1017.37 1017.30 1017.27 1017.31 1017.42 1017.50 1017.60
1012.81 1013.23 1013.41 1013.57 1013.79 1014.09 1014.44 1014.80 1014.99 1015.11 1015.24 1015.39 1015.51 1015.64 1015.82 1016.01 1016.18 1016.32 1016.40 1016.48 1016.61 1016.69 1016.80 1016.83 1016.87 1017.02 1017.13 1017.14 1017.10 1017.07 1017.08 1017.13 1017.10 1017.02 1017.23 1017.40 1017.55 1017.49 1017.39 1017.38 1017.42 1017.53 1017.68
1013.19 1013.45 1013.55 1013.73 1013.96 1014.29 1014.54 1014.82 1015.23 1015.33 1015.42 1015.52 1015.64 1015.87 1016.08 1016.31 1016.48 1016.56 1016.63 1016.69 1016.81 1016.88 1016.91 1016.91 1016.92 1017.01 1017.05 1017.08 1017.06 1017.04 1017.01 1016.99 1016.95 1017.07 1017.02 1017.15 1017.27 1017.27 1017.31 1017.38 1017.40 1017.60 1017.71
1013.26 1013.56 1013.71 1013.90 1014.07 1014.42 1014.65 1014.93 1015.10 1015.33 1015.53 1015.71 1015.85 1016.04 1016.24 1016.41 1016.58 1016.66 1016.67 1016.73 1016.86 1017.00 1016.99 1016.93 1017.01 1017.04 1017.07 1017.14 1017.14 1017.04 1016.93 1016.75 1016.68 1016.76 1016.88 1017.06 1017.17 1017.21 1017.27 1017.39 1017.45 1017.57 1017.66
1013.44 1013.69 1013.85 1014.15 1014.37 1014.58 1014.61 1014.83 1015.09 1015.22 1015.47 1015.73 1015.91 1016.13 1016.37 1016.49 1016.57 1016.62 1016.61 1016.72 1016.87 1017.04 1017.00 1016.95 1017.02 1016.93 1017.01 1017.03 1017.01 1017.02 1016.96 1016.64 1016.63 1016.51 1016.64 1016.98 1017.11 1017.12 1017.14 1017.26 1017.39 1017.45 1017.67
1013.28 1013.75 1013.93 1014.15 1014.43 1014.68 1014.76 1014.91 1015.15 1015.28 1015.49 1015.78 1016.04 1016.18 1016.37 1016.53 1016.67 1016.68 1016.66 1016.79 1016.91 1017.05 1017.03 1016.92 1016.83 1016.79 1016.93 1016.85 1016.78 1016.85 1016.77 1016.65 1016.65 1016.62 1016.53 1016.80 1016.83 1016.87 1016.90 1016.98 1017.18 1017.39 1017.67
1013.87 1013.89 1014.04 1014.22 1014.48 1014.81 1015.05 1015.01 1015.25 1015.30 1015.50 1015.64 1016.04 1016.21 1016.40 1016.54 1016.69 1016.72 1016.70 1016.81 1016.79 1016.86 1016.87 1016.71 1016.72 1016.74 1016.81 1016.76 1016.69 1016.55 1016.63 1016.47 1016.57 1016.69 1016.53 1016.37 1016.35 1016.27 1016.46 1016.71 1016.73 1016.93 1017.31
1014.01 1014.17 1014.11 1014.24 1014.43 1014.62 1014.89 1015.01 1015.11 1015.34 1015.51 1015.79 1015.90 1016.23 1016.45 1016.64 1016.75 1016.74 1016.71 1016.77 1016.81 1016.80 1016.83 1016.73 1016.71 1016.75 1016.80 1016.62 1016.52 1016.43 1016.27 1016.34 1016.33 1016.25 1016.42 1016.27 1016.00 1016.08 1016.20 1016.32 1016.33 1016.33 1016.64
1013.76 1014.03 1014.20 1014.15 1014.29 1014.41 1014.54 1014.93 1015.13 1015.36 1015.57 1015.86 1015.97 1016.11 1016.38 1016.65 1016.81 1016.82 1016.89 1016.89 1016.90 1016.86 1016.85 1016.69 1016.69 1016.71 1016.73 1016.53 1016.37 1016.29 1016.23 1016.19 1016.16 1015.98 1015.99 1015.67 1015.76 1015.79 1015.74 1015.65 1015.91 1016.19 1016.36
1012.66 1013.45 1013.70 1014.09 1014.23 1014.34 1014.27 1014.65 1015.02 1015.35 1015.55 1015.67 1016.00 1016.23 1016.47 1016.63 1016.95 1017.00 1016.98 1016.95 1016.84 1016.82 1016.75 1016.65 1016.59 1016.59 1016.53 1016.35 1016.00 1015.86 1015.99 1015.98 1015.80 1015.47 1015.45 1015.34 1015.49 1015.30 1015.34 1015.77 1016.03 1015.91 1016.15
1012.70 1013.11 1013.35 1013.70 1014.11 1014.25 1014.34 1014.51 1014.65 1015.07 1015.40 1015.64 1015.93 1016.21 1016.55 1016.67 1016.79 1016.87 1016.82 1016.74 1016.71 1016.61 1016.59 1016.47 1016.37 1016.34 1016.31 1016.05 1015.91 1015.55 1015.85 1015.67 1015.40 1015.26 1015.09 1015.00 1015.03 1014.94 1014.96 1015.20 1015.51 1015.81 1016.05
1012.27 1012.65 1012.95 1013.48 1013.65 1013.95 1014.56 1014.58 1014.77 1014.87 1015.12 1015.37 1015.82 1016.13 1016.21 1016.36 1016.56 1016.61 1016.59 1016.56 1016.39 1016.29 1016.25 1016.22 1016.25 1016.25 1016.19 1015.96 1015.62 1015.59 1015.45 1015.45 1015.16 1015.19 1015.16 1015.03 1014.86 1014.63 1014.75 1014.78 1014.79 1015.27 1015.64
1011.73 1012.08 1012.69 1013.18 1013.32 1013.45 1014.22 1014.47 1014.69 1014.82 1014.92 1015.27 1015.64 1015.75 1015.85 1016.01 1016.21 1016.40 1016.21 1016.08 1016.03 1015.93 1015.77 1015.77 1015.95 1016.14 1016.08 1015.76 1015.47 1015.16 1015.08 1015.32 1015.14 1015.14 1015.16 1015.00 1014.72 1014.28 1014.05 1014.12 1014.26 1014.51 1015.01
1011.24 1011.59 1012.25 1012.92 1013.07 1013.09 1013.77 1014.29 1014.63 1014.71 1014.90 1015.13 1015.27 1015.35 1015.38 1015.39 1015.75 1015.86 1016.08 1016.25 1016.12 1016.00 1015.85 1015.70 1015.87 1015.93 1015.91 1015.56 1015.66 1015.35 1015.13 1015.12 1015.07 1015.09 1015.05 1014.72 1014.41 1014.18 1013.87 1013.87 1014.00 1014.17 1014.57
1010.87 1011.25 1011.59 1012.20 1012.83 1012.91 1013.59 1014.05 1014.43 1014.57 1014.54 1014.70 1014.79 1014.91 1014.95 1015.11 1015.21 1015.58 1015.91 1016.27 1016.40 1016.22 1016.11 1016.08 1016.09 1016.18 1016.21 1016.17 1015.97 1015.67 1015.49 1015.25 1015.15 1015.16 1015.00 1014.82 1014.47 1014.39 1014.15 1014.21 1014.27 1014.47 1014.25
1009.93 1010.73 1011.29 1011.69 1012.28 1012.76 1013.44 1013.93 1014.38 1014.46 1014.88 1014.88 1014.83 1014.83 1014.90 1015.06 1015.16 1015.63 1015.93 1016.17 1016.19 1016.28 1016.31 1016.20 1016.38 1016.44 1016.74 1016.65 1016.37 1015.97 1015.58 1015.33 1015.09 1014.87 1014.82 1014.67 1014.47 1014.40 1014.38 1014.35 1014.55 1014.52 1014.03
1009.73 1010.06 1010.61 1011.11 1011.69 1012.34 1013.23 1013.89 1014.34 1015.02 1015.12 1015.15 1015.08 1015.00 1014.82 1014.93 1015.14 1015.56 1016.06 1016.18 1016.31 1016.66 1016.79 1016.72 1016.63 1016.71 1016.88 1016.75 1016.58 1016.32 1015.75 1015.27 1015.16 1015.15 1015.06 1014.81 1014.67 1014.36 1013.90 1014.18 1014.33 1014.19 1013.75
1009.71 1009.89 1010.24 1011.14 1011.54 1012.11 1012.94 1013.89 1014.88 1015.34 1015.94 1015.89 1015.71 1015.67 1015.57 1015.56 1015.67 1016.09 1016.49 1016.81 1016.85 1016.65 1016.96 1016.90 1017.02 1017.37 1016.95 1016.61 1016.57 1016.47 1015.82 1015.42 1015.42 1015.29 1014.93 1014.95 1014.87 1014.42 1013.83 1013.63 1013.75 1013.53 1013.02
1010.13 1010.35 1010.60 1010.85 1011.35 1011.86 1012.67 1013.58 1014.27 1015.37 1016.31 1016.15 1016.16 1016.11 1016.01 1015.88 1016.05 1016.36 1016.73 1017.04 1017.02 1017.62 1017.25 1017.16 1017.38 1017.12 1017.17 1017.01 1017.10 1017.19 1016.71 1015.91 1015.52 1014.99 1014.71 1014.57 1014.40 1014.14 1013.71 1013.27 1013.07 1012.96 1012.74
1010.63 1010.96 1011.24 1011.35 1011.65 1012.16 1012.68 1013.49 1014.41 1015.37 1016.01 1016.33 1016.34 1016.61 1016.51 1016.52 1016.79 1017.20 1017.05 1017.44 1017.27 1017.60 1017.81 1017.70 1017.32 1017.23 1017.32 1017.21 1017.16 1017.33 1017.19 1016.89 1016.34 1015.10 1014.33 1014.22 1014.03 1013.85 1013.54 1012.99 1012.66 1012.60 1012.39
1011.26 1011.33 1011.61 1011.74 1011.94 1012.26 1012.83 1013.55 1014.37 1014.53 1015.61 1016.47 1016.79 1017.03 1017.05 1017.05 1017.16 1017.30 1017.57 1017.54 1017.71 1017.91 1018.05 1017.83 1017.67 1017.68 1017.57 1017.80 1017.44 1017.27 1017.35 1017.27 1016.72 1015.70 1015.09 1014.36 1013.81 1013.46 1013.04 1012.89 1012.47 1011.97 1011.82
1011.46 1011.70 1011.92 1012.11 1012.26 1012.50 1012.94 1013.57 1014.33 1015.02 1015.89 1016.58 1017.17 1017.33 1017.55 1017.54 1017.60 1017.75 1017.84 1018.20 1018.37 1018.33 1018.37 1018.20 1018.25 1018.29 1018.37 1018.45 1018.32 1017.97 1017.62 1017.30 1017.20 1016.85 1015.71 1014.96 1013.84 1012.96 1012.74 1012.50 1012.35 1011.81 1011.19
1011.63 1011.77 1011.90 1012.24 1012.87 1012.95 1013.33 1013.64 1014.16 1014.94 1016.01 1016.83 1017.33 1017.56 1017.65 1018.17 1018.21 1018.35 1018.43 1018.59 1018.61 1018.67 1018.82 1018.92 1018.89 1018.79 1018.72 1018.54 1018.60 1018.55 1018.55 1018.32 1017.80 1017.29 1016.60 1015.63 1014.71 1013.12 1012.31 1012.11 1011.67 1011.20 1010.56
Wind_Speed
5 8 13 14 16 16 15 14 13 14 14 14 14 14 15 16 16 17 16 15 13 13 14 13 13 14 14 14 14 14 13 12 11 11 10 12 12 12 12 12 11 6 10
14 11 15 16 17 16 15 14 14 14 14 14 15 15 16 16 16 16 15 15 14 13 13 13 13 12 12 13 13 12 11 11 10 10 10 9 10 11 11 10 10 8 10
14 12 13 16 17 17 16 15 14 14 15 15 15 16 16 15 15 15 14 13 13 13 13 13 12 12 11 11 10 9 8 8 11 9 7 3 3 9 9 10 9 9 9
12 9 10 16 16 16 15 14 14 14 14 15 15 15 15 14 14 13 13 12 11 11 10 10 10 10 9 8 6 5 3 2 2 1 3 0 1 6 8 9 9 8 8
12 7 10 16 15 16 15 14 14 14 14 14 14 14 13 13 12 11 11 10 9 9 8 8 7 7 6 6 4 2 1 3 5 5 5 3 1 3 7 8 9 8 8
8 6 13 15 15 16 15 14 12 13 13 13 13 12 12 11 11 9 9 8 7 7 6 4 4 4 4 3 3 2 1 2 3 4 5 7 5 6 8 8 9 9 8
11 6 10 14 15 16 15 14 14 13 12 12 12 12 11 10 10 9 8 7 6 5 3 1 0 1 1 1 1 1 1 3 2 2 5 5 5 9 10 8 9 9 9
13 6 7 12 13 14 15 15 14 13 13 12 12 12 11 10 9 9 8 7 6 4 3 3 4 4 5 5 5 3 3 5 2 3 5 4 7 10 10 10 10 10 9
13 8 6 7 11 14 13 14 13 13 12 11 10 10 11 10 9 8 7 7 6 5 5 6 7 7 6 8 8 7 6 7 2 1 5 4 10 13 12 12 11 10 9
11 11 7 7 6 6 6 14 13 13 13 12 12 11 10 10 9 8 7 7 8 8 9 9 9 9 8 9 9 10 10 11 3 4 4 4 14 16 15 14 13 13 11
11 11 11 10 7 7 6 8 13 14 13 12 11 11 7 4 5 7 7 9 10 10 10 10 10 10 9 10 11 11 12 3 4 4 3 8 15 16 16 16 16 16 15
13 14 13 12 12 9 8 6 5 5 4 4 4 5 4 4 4 5 7 10 11 11 11 12 11 11 9 4 3 9 3 4 4 4 3 13 13 16 19 19 18 16 15
16 12 15 13 9 9 7 5 4 3 3 3 5 4 3 3 3 2 2 3 3 7 4 6 5 3 5 5 6 5 3 4 4 3 5 11 12 18 20 17 17 17 16
13 13 13 12 10 8 3 6 5 5 4 4 4 5 3 3 4 4 3 4 4 3 5 4 4 4 6 7 7 9 3 4 3 3 5 8 10 17 19 18 18 18 16
13 14 13 12 11 8 5 4 4 6 5 4 4 4 4 4 4 3 4 4 4 3 4 4 5 5 5 6 7 7 6 5 6 2 2 10 8 10 16 20 17 17 16
13 14 11 13 11 9 7 6 5 4 4 4 4 5 6 4 4 4 5 4 4 4 4 4 4 4 5 4 6 6 6 4 4 4 3 5 10 5 10 18 16 16 16
12 13 13 13 11 11 9 5 4 4 4 4 4 6 6 7 6 5 4 4 4 3 4 4 3 2 4 4 4 3 4 3 3 4 3 4 4 6 7 10 13 13 9
9 12 12 12 10 9 8 6 3 4 4 4 5 4 6 6 6 2 1 2 2 0 1 1 2 3 3 4 3 3 3 4 4 5 4 4 4 3 5 6 9 8 12
13 9 11 9 9 8 6 4 4 1 1 2 1 3 5 6 4 4 3 3 4 3 3 2 3 2 2 2 4 3 4 4 5 4 5 5 6 5 3 7 8 7 10
9 11 11 9 9 9 6 4 5 5 5 4 3 3 4 3 5 6 4 4 4 4 4 4 4 4 2 1 3 5 5 4 4 3 4 4 5 8 7 3 3 4 13
7 10 11 10 8 7 3 4 4 4 4 3 4 6 7 7 8 6 5 4 4 4 4 4 3 5 4 3 2 3 4 4 4 4 4 4 4 7 8 4 3 4 6
6 7 7 9 7 6 4 4 5 6 3 4 4 6 6 8 8 7 5 5 6 4 5 4 2 1 1 3 2 0 4 5 3 4 3 4 6 4 5 7 6 5 4
7 6 6 6 8 7 10 9 9 9 5 3 5 4 5 7 7 5 7 4 6 4 3 4 4 5 3 2 1 1 2 3 3 4 6 4 5 3 4 5 6 6 5
7 6 6 6 7 7 8 9 10 8 7 3 4 3 5 5 7 6 6 6 6 4 5 5 5 4 4 4 2 1 2 3 3 4 4 5 6 6 6 5 6 7 7
10 10 7 7 6 7 7 9 9 10 8 7 5 8 7 5 7 6 7 6 6 4 4 6 6 6 4 2 3 3 3 2 1 3 6 9 9 5 4 5 5 5 4
6 8 9 10 6 7 9 9 13 15 12 8 6 7 6 3 4 6 6 6 5 5 6 4 4 6 5 4 3 3 2 3 4 3 4 7 8 7 7 4 5 5 3
Wind_Direction
194 155 160 144 124 120 119 117 115 116 117 116 115 117 119 118 118 117 114 112 111 105 101 99 97 97 97 96 94 95 95 95 93 88 84 106 103 101 105 98 95 85 99
152 156 161 146 133 131 130 130 129 127 126 125 123 121 119 118 118 116 115 114 111 107 102 97 96 96 97 95 95 96 99 95 90 90 90 94 103 109 108 103 102 91 97
150 155 158 147 140 140 140 138 135 134 133 131 129 126 123 120 119 117 115 113 110 107 103 96 93 95 96 95 98 103 106 110 98 78 84 66 101 118 120 113 111 108 97
142 148 152 147 143 145 144 141 139 137 135 134 130 126 123 123 122 119 117 114 111 106 100 95 94 93 92 95 97 97 105 142 283 9 113 118 116 124 119 120 123 121 120
147 150 161 152 148 148 145 144 143 141 139 136 133 132 130 129 127 121 120 118 113 107 103 100 97 93 92 101 104 124 221 261 268 266 189 198 210 164 146 140 128 130 128
147 151 161 153 148 150 149 146 144 144 146 145 141 137 134 131 127 123 123 121 120 117 115 116 108 105 109 106 110 104 328 336 343 322 180 181 179 198 163 150 153 149 139
156 156 156 155 151 154 153 153 153 154 156 155 149 144 140 137 134 135 138 142 141 141 147 162 61 309 336 338 343 43 9 348 38 344 177 186 186 211 198 173 162 162 154
160 148 154 158 156 160 161 162 163 162 165 166 160 156 154 155 155 157 165 169 169 177 194 231 261 279 297 299 296 307 322 309 29 312 162 182 201 204 194 186 177 174 173
165 156 153 156 169 170 168 170 172 171 171 171 171 167 169 172 174 180 187 191 199 214 229 247 259 266 279 293 300 308 301 295 319 307 178 189 207 208 207 194 189 185 188
169 170 165 159 162 164 179 179 182 181 182 178 181 180 179 184 188 199 210 216 219 230 238 244 256 265 272 281 290 298 302 297 280 269 240 212 211 207 210 204 195 191 195
178 182 181 176 172 170 174 191 190 193 191 191 189 191 186 182 203 216 223 230 238 245 252 258 264 273 282 281 281 279 281 257 260 237 234 253 217 217 218 212 206 197 195
183 191 190 187 188 177 183 191 183 197 187 192 194 190 184 194 211 222 242 250 254 261 266 267 270 280 293 285 273 283 267 277 259 253 237 247 221 221 226 217 210 209 202
183 185 190 191 191 187 190 177 183 199 184 195 201 193 191 197 229 237 256 262 264 264 266 273 281 264 254 259 273 264 261 256 255 254 248 254 237 229 229 231 222 213 209
179 195 188 187 187 197 198 191 187 187 186 203 200 198 186 208 220 228 232 237 242 233 253 249 258 248 253 258 261 275 273 257 250 256 273 288 260 238 232 227 222 225 219
182 194 194 187 186 188 213 198 193 194 196 196 189 203 198 205 219 227 243 241 238 224 231 254 267 277 266 264 256 261 257 253 262 280 308 300 289 254 238 239 228 222 223
188 192 187 194 193 179 198 198 207 199 190 186 187 212 210 203 217 223 236 242 250 215 226 234 249 271 278 273 275 244 242 249 276 297 298 292 298 322 235 235 238 217 226
190 182 186 194 194 184 190 189 211 194 185 193 203 209 215 210 210 223 246 268 286 291 288 276 293 294 301 327 337 313 303 306 271 266 264 290 284 284 234 228 223 219 171
165 186 178 188 189 177 186 187 199 218 200 206 205 206 221 234 224 228 237 343 288 241 337 51 56 60 42 8 339 327 331 316 316 281 272 270 283 311 285 255 228 247 226
179 170 173 174 175 169 173 172 203 187 51 348 184 231 223 213 156 95 66 19 28 45 31 30 67 97 64 336 292 275 279 282 279 316 306 291 300 299 258 264 251 276 284
147 157 165 167 164 158 159 146 101 76 60 37 29 29 58 55 99 99 82 70 72 67 356 8 61 54 113 277 308 313 281 266 290 290 283 283 285 286 279 257 253 278 249
96 125 139 140 162 147 130 137 122 97 85 57 47 66 75 81 76 67 61 51 37 50 65 52 17 344 2 348 35 312 305 293 296 284 271 252 264 262 266 269 238 258 277
116 103 118 127 138 130 117 124 123 121 94 85 61 46 49 67 69 78 86 69 52 3 29 19 344 9 360 22 66 106 343 331 333 294 277 265 269 258 262 258 229 227 259
113 115 113 118 121 117 115 106 104 114 114 80 67 71 58 74 63 59 70 59 73 56 49 26 25 32 21 335 27 86 329 290 310 312 310 309 291 275 257 254 261 243 249
138 120 125 119 115 118 128 127 142 133 127 83 101 95 80 69 77 70 71 68 59 56 41 34 26 24 29 20 340 108 227 258 304 318 317 307 301 285 237 247 257 262 236
146 146 132 115 104 109 117 129 120 112 109 117 110 106 86 64 78 76 72 68 64 56 45 43 32 29 25 32 13 335 346 316 313 299 320 321 317 298 249 245 256 251 279
139 135 131 121 107 108 118 114 124 123 129 127 123 110 99 79 76 67 71 70 63 54 47 43 36 40 20 18 20 25 41 341 341 319 308 319 302 306 312 266 271 288 268